sat.trackr.live / text

‹ back to catalog

STARLINK-31326

NORAD 58877 · 2024-020B

PAYLOAD ACTIVE UNKNOWN

§ Identity

Operator
Country
US
Launch date
2024-01-29
Launch site
AFWTR
Launch vehicle
Mass (kg)
RCS (m²)

Purposes: comms

External: N2YO · Heavens-Above · Gunter

§ Orbital elements

Epoch: 2026-09-20T07:09:36.170784Z

Period
94.01 min
Inclination
53.1613°
Eccentricity
0.0001449
Mean motion
15.31704352 rev/d
Perigee alt
469.7 km
Apogee alt
471.7 km
Semi-major
6,848.9 km
B*
-2.6787e-5
RAAN
137.2695°
Arg perigee
75.7560°
Mean anomaly
284.3602°
Rev number
14,788

§ Raw data

STARLINK-313261 58877U 24020B   26263.29833531 -.00001196  00000+0 -26787-4 0  99982 58877  53.1613 137.2695 0001449  75.7560 284.3602 15.31704352147881

JSON: /api/v1/satellites/58877 · /tle

For live sub-satellite position, see the globe view (requires WebGL).

§ Visibility from observer

Set your observer location to see the next 7 days of passes ≥ 10°. The values pass through the URL so the page stays shareable.

No JS? Fill the form by hand. The geolocation button needs JavaScript.